User: anonymous   Login
Location: downtown San Diego
(32.7310°N, 117.1990°W)
Time: 23:04:37
(UTC-07:00)
Language:

Cosmos 1500 Rocket - Orbit

View from above orbital plane
View from above orbital plane
View from above satellite
View from above satellite

Ground track
Ground track

The orbit data is extracted from the following two-line orbital elements,

1 14373U 83099B   19289.26103382  .00000079  00000-0  66569-5 0  9994
2 14373  82.5420 169.1416 0018890 300.4388 199.1900 14.83769181947075
Epoch (UTC): 16 October 2019 06:15:53
Eccentricity: 0.0018890
inclination: 82.5420°
perigee height: 604 km
apogee height: 630 km
right ascension of ascending node: 169.1416°
argument of perigee: 300.4388°
revolutions per day: 14.83769181
mean anomaly at epoch: 199.1900°
orbit number at epoch: 94707

The dashed part of the orbit path shows where the satellite is in the earth's shadow,  

DLR